Time,TemperatureF,DewpointF,PressureIn,WindDirection,WindDirectionDegrees,WindSpeedMPH,WindSpeedGustMPH,Humidity,HourlyPrecipIn,Conditions,Clouds,dailyrainin,SoftwareType,DateUTC
2013-03-30 00:00:00,37.4,30.2,30.16,NNW,333,0.0,0.0,75,0.00,,,0.00,VWS V14.01,2013-03-30 04:00:00,
2013-03-30 00:05:00,36.9,30.0,30.16,NNW,333,0.0,0.0,76,0.00,,,0.00,VWS V14.01,2013-03-30 04:05:00,
2013-03-30 00:10:00,36.5,30.0,30.16,NNW,333,0.0,0.0,77,0.00,,,0.00,VWS V14.01,2013-03-30 04:10:00,
2013-03-30 00:15:00,36.2,29.7,30.16,NNW,333,0.0,0.0,77,0.00,,,0.00,VWS V14.01,2013-03-30 04:15:00,
2013-03-30 00:20:00,35.9,29.7,30.16,NNW,333,0.0,0.0,78,0.00,,,0.00,VWS V14.01,2013-03-30 04:20:00,
2013-03-30 00:25:00,35.7,29.5,30.16,NNW,333,0.0,0.0,78,0.00,,,0.00,VWS V14.01,2013-03-30 04:25:00,
2013-03-30 00:30:00,35.4,29.5,30.16,NNW,333,0.0,0.0,79,0.00,,,0.00,VWS V14.01,2013-03-30 04:30:00,
2013-03-30 00:35:00,35.1,29.6,30.16,NNW,333,0.0,0.0,80,0.00,,,0.00,VWS V14.01,2013-03-30 04:35:00,
2013-03-30 00:40:00,34.9,29.4,30.16,NNW,333,0.0,0.0,80,0.00,,,0.00,VWS V14.01,2013-03-30 04:40:00,
2013-03-30 00:45:00,34.8,29.6,30.16,NNW,333,0.0,0.0,81,0.00,,,0.00,VWS V14.01,2013-03-30 04:45:00,
2013-03-30 00:50:00,34.6,29.4,30.16,NNW,333,0.0,0.0,81,0.00,,,0.00,VWS V14.01,2013-03-30 04:50:00,
2013-03-30 00:55:00,34.3,29.1,30.16,NNW,333,0.0,0.0,81,0.00,,,0.00,VWS V14.01,2013-03-30 04:55:00,
2013-03-30 01:00:00,34.2,29.3,30.16,NNW,333,0.0,0.0,82,0.00,,,0.00,VWS V14.01,2013-03-30 05:00:00,
2013-03-30 01:05:00,33.9,29.0,30.16,NNW,333,0.0,0.0,82,0.00,,,0.00,VWS V14.01,2013-03-30 05:05:00,
2013-03-30 01:10:00,33.7,28.8,30.16,NNW,333,0.0,0.0,82,0.00,,,0.00,VWS V14.01,2013-03-30 05:10:00,
2013-03-30 01:15:00,33.6,29.0,30.16,NNW,333,0.0,0.0,83,0.00,,,0.00,VWS V14.01,2013-03-30 05:15:00,
2013-03-30 01:20:00,33.4,29.1,30.16,NNW,333,0.0,0.0,84,0.00,,,0.00,VWS V14.01,2013-03-30 05:20:00,
2013-03-30 01:25:00,33.3,29.0,30.16,NNW,333,0.0,0.0,84,0.00,,,0.00,VWS V14.01,2013-03-30 05:25:00,
2013-03-30 01:30:00,33.1,29.1,30.16,NNW,333,0.0,0.0,85,0.00,,,0.00,VWS V14.01,2013-03-30 05:30:00,
2013-03-30 01:35:00,33.0,29.0,30.16,NNW,333,0.0,0.0,85,0.00,,,0.00,VWS V14.01,2013-03-30 05:35:00,
2013-03-30 01:40:00,32.8,28.8,30.16,NNW,333,0.0,0.0,85,0.00,,,0.00,VWS V14.01,2013-03-30 05:40:00,
2013-03-30 01:45:00,32.8,28.8,30.16,NNW,333,0.0,0.0,85,0.00,,,0.00,VWS V14.01,2013-03-30 05:45:00,
2013-03-30 01:50:00,32.7,28.7,30.16,NNW,333,0.0,0.0,85,0.00,,,0.00,VWS V14.01,2013-03-30 05:50:00,
2013-03-30 01:55:00,32.7,28.7,30.16,NNW,333,0.0,0.0,85,0.00,,,0.00,VWS V14.01,2013-03-30 05:55:00,
2013-03-30 02:00:00,32.6,28.6,30.16,NNW,333,0.0,0.0,85,0.00,,,0.00,VWS V14.01,2013-03-30 06:00:00,
2013-03-30 02:05:00,32.3,28.6,30.16,NNW,333,0.0,0.0,86,0.00,,,0.00,VWS V14.01,2013-03-30 06:05:00,
2013-03-30 02:10:00,32.1,28.4,30.16,NNW,333,0.0,0.0,86,0.00,,,0.00,VWS V14.01,2013-03-30 06:10:00,
2013-03-30 02:15:00,32.0,28.3,30.16,NNW,333,0.0,0.0,86,0.00,,,0.00,VWS V14.01,2013-03-30 06:15:00,
2013-03-30 02:20:00,31.7,28.3,30.16,NNW,333,0.0,0.0,87,0.00,,,0.00,VWS V14.01,2013-03-30 06:20:00,
2013-03-30 02:25:00,31.7,28.3,30.16,NNW,333,0.0,0.0,87,0.00,,,0.00,VWS V14.01,2013-03-30 06:25:00,
2013-03-30 02:29:00,31.5,28.4,30.16,NNW,333,0.0,0.0,88,0.00,,,0.00,VWS V14.01,2013-03-30 06:29:00,
2013-03-30 02:30:00,31.5,28.4,30.16,NNW,333,0.0,0.0,88,0.00,,,0.00,VWS V14.01,2013-03-30 06:30:00,
2013-03-30 02:34:00,31.4,28.3,30.16,NNW,333,0.0,0.0,88,0.00,,,0.00,VWS V14.01,2013-03-30 06:34:00,
2013-03-30 02:39:00,31.2,28.1,30.16,NNW,333,0.0,0.0,88,0.00,,,0.00,VWS V14.01,2013-03-30 06:39:00,
2013-03-30 02:44:00,31.2,28.1,30.16,NNW,333,0.0,0.0,88,0.00,,,0.00,VWS V14.01,2013-03-30 06:44:00,
2013-03-30 02:45:00,31.2,28.1,30.16,NNW,333,0.0,0.0,88,0.00,,,0.00,VWS V14.01,2013-03-30 06:45:00,
2013-03-30 02:49:00,31.2,28.3,30.16,NNW,333,0.0,0.0,89,0.00,,,0.00,VWS V14.01,2013-03-30 06:49:00,
2013-03-30 02:54:00,31.1,28.2,30.16,NNW,333,0.0,0.0,89,0.00,,,0.00,VWS V14.01,2013-03-30 06:54:00,
2013-03-30 02:59:00,31.1,28.2,30.15,NNW,333,0.0,0.0,89,0.00,,,0.00,VWS V14.01,2013-03-30 06:59:00,
2013-03-30 03:00:00,31.1,28.2,30.15,NNW,333,0.0,0.0,89,0.00,,,0.00,VWS V14.01,2013-03-30 07:00:00,
2013-03-30 03:04:00,30.9,28.0,30.15,NNW,333,0.0,0.0,89,0.00,,,0.00,VWS V14.01,2013-03-30 07:04:00,
2013-03-30 03:09:00,30.8,28.0,30.15,NNW,333,0.0,0.0,89,0.00,,,0.00,VWS V14.01,2013-03-30 07:09:00,
2013-03-30 03:14:00,30.8,28.0,30.15,NNW,333,0.0,0.0,89,0.00,,,0.00,VWS V14.01,2013-03-30 07:14:00,
2013-03-30 03:15:00,30.8,28.0,30.15,NNW,333,0.0,0.0,89,0.00,,,0.00,VWS V14.01,2013-03-30 07:15:00,
2013-03-30 03:19:00,30.6,27.8,30.15,NNW,333,0.0,0.0,89,0.00,,,0.00,VWS V14.01,2013-03-30 07:19:00,
2013-03-30 03:24:00,30.6,28.0,30.15,NNW,333,0.0,0.0,90,0.00,,,0.00,VWS V14.01,2013-03-30 07:24:00,
2013-03-30 03:29:00,30.5,27.9,30.16,NNW,333,0.0,0.0,90,0.00,,,0.00,VWS V14.01,2013-03-30 07:29:00,
2013-03-30 03:30:00,30.5,27.9,30.16,NNW,333,0.0,0.0,90,0.00,,,0.00,VWS V14.01,2013-03-30 07:30:00,
2013-03-30 03:34:00,30.5,27.9,30.16,NNW,333,0.0,0.0,90,0.00,,,0.00,VWS V14.01,2013-03-30 07:34:00,
2013-03-30 03:39:00,30.5,27.9,30.16,NNW,333,0.0,0.0,90,0.00,,,0.00,VWS V14.01,2013-03-30 07:39:00,
2013-03-30 03:44:00,30.5,27.9,30.16,NNW,333,0.0,0.0,90,0.00,,,0.00,VWS V14.01,2013-03-30 07:44:00,
2013-03-30 03:45:00,30.5,27.9,30.16,NNW,333,0.0,0.0,90,0.00,,,0.00,VWS V14.01,2013-03-30 07:45:00,
2013-03-30 03:49:00,30.5,27.9,30.16,NNW,333,0.0,0.0,90,0.00,,,0.00,VWS V14.01,2013-03-30 07:49:00,
2013-03-30 03:54:00,30.5,27.9,30.16,NNW,333,0.0,0.0,90,0.00,,,0.00,VWS V14.01,2013-03-30 07:54:00,
2013-03-30 03:59:00,30.3,27.7,30.15,NNW,333,0.0,0.0,90,0.00,,,0.00,VWS V14.01,2013-03-30 07:59:00,
2013-03-30 04:00:00,30.3,27.7,30.15,NNW,333,0.0,0.0,90,0.00,,,0.00,VWS V14.01,2013-03-30 08:00:00,
2013-03-30 04:04:00,30.2,27.6,30.15,NNW,333,0.0,0.0,90,0.00,,,0.00,VWS V14.01,2013-03-30 08:04:00,
2013-03-30 04:09:00,30.2,27.6,30.15,NNW,333,0.0,0.0,90,0.00,,,0.00,VWS V14.01,2013-03-30 08:09:00,
2013-03-30 04:14:00,30.0,27.7,30.15,NNW,333,0.0,0.0,91,0.00,,,0.00,VWS V14.01,2013-03-30 08:14:00,
2013-03-30 04:15:00,30.0,27.7,30.15,NNW,333,0.0,0.0,91,0.00,,,0.00,VWS V14.01,2013-03-30 08:15:00,
2013-03-30 04:19:00,30.0,27.7,30.15,NNW,333,0.0,0.0,91,0.00,,,0.00,VWS V14.01,2013-03-30 08:19:00,
2013-03-30 04:24:00,30.0,27.7,30.15,NNW,333,0.0,0.0,91,0.00,,,0.00,VWS V14.01,2013-03-30 08:24:00,
2013-03-30 04:29:00,30.0,27.7,30.15,NNW,333,0.0,0.0,91,0.00,,,0.00,VWS V14.01,2013-03-30 08:29:00,
2013-03-30 04:30:00,30.0,27.7,30.15,NNW,333,0.0,0.0,91,0.00,,,0.00,VWS V14.01,2013-03-30 08:30:00,
2013-03-30 04:34:00,30.0,27.7,30.15,NNW,333,0.0,0.0,91,0.00,,,0.00,VWS V14.01,2013-03-30 08:34:00,
2013-03-30 04:39:00,29.9,27.6,30.15,NNW,333,0.0,0.0,91,0.00,,,0.00,VWS V14.01,2013-03-30 08:39:00,
2013-03-30 04:44:00,29.9,27.9,30.15,NNW,333,0.0,0.0,92,0.00,,,0.00,VWS V14.01,2013-03-30 08:44:00,
2013-03-30 04:45:00,29.9,27.9,30.15,NNW,333,0.0,0.0,92,0.00,,,0.00,VWS V14.01,2013-03-30 08:45:00,
2013-03-30 04:49:00,29.9,27.6,30.15,NNW,333,0.0,0.0,91,0.00,,,0.00,VWS V14.01,2013-03-30 08:49:00,
2013-03-30 04:54:00,29.7,27.4,30.15,NNW,333,0.0,0.0,91,0.00,,,0.00,VWS V14.01,2013-03-30 08:54:00,
2013-03-30 04:59:00,29.7,27.7,30.15,NNW,333,0.0,0.0,92,0.00,,,0.00,VWS V14.01,2013-03-30 08:59:00,
2013-03-30 05:00:00,29.7,27.7,30.15,NNW,333,0.0,0.0,92,0.00,,,0.00,VWS V14.01,2013-03-30 09:00:00,
2013-03-30 05:04:00,29.6,27.6,30.15,NNW,333,0.0,0.0,92,0.00,,,0.00,VWS V14.01,2013-03-30 09:04:00,
2013-03-30 05:09:00,29.6,27.6,30.15,NNW,333,0.0,0.0,92,0.00,,,0.00,VWS V14.01,2013-03-30 09:09:00,
2013-03-30 05:14:00,29.6,27.6,30.15,NNW,333,0.0,0.0,92,0.00,,,0.00,VWS V14.01,2013-03-30 09:14:00,
2013-03-30 05:15:00,29.6,27.6,30.15,NNW,333,0.0,0.0,92,0.00,,,0.00,VWS V14.01,2013-03-30 09:15:00,
2013-03-30 05:19:00,29.6,27.6,30.15,NNW,333,0.0,0.0,92,0.00,,,0.00,VWS V14.01,2013-03-30 09:19:00,
2013-03-30 05:24:00,29.7,27.7,30.15,NNW,333,0.0,0.0,92,0.00,,,0.00,VWS V14.01,2013-03-30 09:24:00,
2013-03-30 05:29:00,29.7,27.9,30.15,NNW,333,0.0,0.0,93,0.00,,,0.00,VWS V14.01,2013-03-30 09:29:00,
2013-03-30 05:30:00,29.7,27.9,30.15,NNW,333,0.0,0.0,93,0.00,,,0.00,VWS V14.01,2013-03-30 09:30:00,
2013-03-30 05:34:00,29.6,27.6,30.15,NNW,333,0.0,0.0,92,0.00,,,0.00,VWS V14.01,2013-03-30 09:34:00,
2013-03-30 05:39:00,29.6,27.6,30.15,NNW,333,0.0,0.0,92,0.00,,,0.00,VWS V14.01,2013-03-30 09:39:00,
2013-03-30 05:44:00,29.6,27.6,30.16,NNW,333,0.0,0.0,92,0.00,,,0.00,VWS V14.01,2013-03-30 09:44:00,
2013-03-30 05:45:00,29.6,27.6,30.16,NNW,333,0.0,0.0,92,0.00,,,0.00,VWS V14.01,2013-03-30 09:45:00,
2013-03-30 05:49:00,29.4,27.4,30.16,NNW,333,0.0,0.0,92,0.00,,,0.00,VWS V14.01,2013-03-30 09:49:00,
2013-03-30 05:54:00,29.4,27.4,30.16,NNW,333,0.0,0.0,92,0.00,,,0.00,VWS V14.01,2013-03-30 09:54:00,
2013-03-30 05:59:00,29.3,27.3,30.16,NNW,333,0.0,0.0,92,0.00,,,0.00,VWS V14.01,2013-03-30 09:59:00,
2013-03-30 06:00:00,29.3,27.3,30.16,NNW,333,0.0,0.0,92,0.00,,,0.00,VWS V14.01,2013-03-30 10:00:00,
2013-03-30 06:04:00,29.3,27.3,30.16,NNW,333,0.0,0.0,92,0.00,,,0.00,VWS V14.01,2013-03-30 10:04:00,
2013-03-30 06:09:00,29.3,27.5,30.16,NNW,333,0.0,0.0,93,0.00,,,0.00,VWS V14.01,2013-03-30 10:09:00,
2013-03-30 06:14:00,29.3,27.5,30.16,NNW,333,0.0,0.0,93,0.00,,,0.00,VWS V14.01,2013-03-30 10:14:00,
2013-03-30 06:15:00,29.3,27.3,30.16,NNW,333,0.0,0.0,92,0.00,,,0.00,VWS V14.01,2013-03-30 10:15:00,
2013-03-30 06:19:00,29.2,27.2,30.16,NNW,333,0.0,0.0,92,0.00,,,0.00,VWS V14.01,2013-03-30 10:19:00,
2013-03-30 06:24:00,29.2,27.2,30.16,NNW,333,0.0,0.0,92,0.00,,,0.00,VWS V14.01,2013-03-30 10:24:00,
2013-03-30 06:29:00,29.0,27.0,30.17,NNW,333,0.0,0.0,92,0.00,,,0.00,VWS V14.01,2013-03-30 10:29:00,
2013-03-30 06:30:00,29.0,27.0,30.17,NNW,333,0.0,0.0,92,0.00,,,0.00,VWS V14.01,2013-03-30 10:30:00,
2013-03-30 06:34:00,28.9,27.1,30.17,NNW,333,0.0,0.0,93,0.00,,,0.00,VWS V14.01,2013-03-30 10:34:00,
2013-03-30 06:39:00,28.9,27.1,30.17,NNW,333,0.0,0.0,93,0.00,,,0.00,VWS V14.01,2013-03-30 10:39:00,
2013-03-30 06:44:00,28.7,26.9,30.17,NNW,333,0.0,0.0,93,0.00,,,0.00,VWS V14.01,2013-03-30 10:44:00,
2013-03-30 06:45:00,28.7,26.9,30.17,NNW,333,0.0,0.0,93,0.00,,,0.00,VWS V14.01,2013-03-30 10:45:00,
2013-03-30 06:49:00,28.7,26.9,30.17,NNW,333,0.0,0.0,93,0.00,,,0.00,VWS V14.01,2013-03-30 10:49:00,
2013-03-30 06:54:00,28.6,26.8,30.17,NNW,333,0.0,0.0,93,0.00,,,0.00,VWS V14.01,2013-03-30 10:54:00,
2013-03-30 06:59:00,28.6,26.8,30.17,NNW,333,0.0,0.0,93,0.00,,,0.00,VWS V14.01,2013-03-30 10:59:00,
2013-03-30 07:00:00,28.6,26.8,30.17,NNW,333,0.0,0.0,93,0.00,,,0.00,VWS V14.01,2013-03-30 11:00:00,
2013-03-30 07:04:00,28.6,26.8,30.17,NNW,333,0.0,0.0,93,0.00,,,0.00,VWS V14.01,2013-03-30 11:04:00,
2013-03-30 07:09:00,28.6,26.8,30.17,NNW,333,0.0,0.0,93,0.00,,,0.00,VWS V14.01,2013-03-30 11:09:00,
2013-03-30 07:14:00,28.6,26.8,30.18,NNW,333,0.0,0.0,93,0.00,,,0.00,VWS V14.01,2013-03-30 11:14:00,
2013-03-30 07:15:00,28.6,26.8,30.18,NNW,333,0.0,0.0,93,0.00,,,0.00,VWS V14.01,2013-03-30 11:15:00,
2013-03-30 07:19:00,28.6,26.8,30.18,NNW,333,0.0,0.0,93,0.00,,,0.00,VWS V14.01,2013-03-30 11:19:00,
2013-03-30 07:24:00,28.6,26.8,30.18,NNW,333,0.0,0.0,93,0.00,,,0.00,VWS V14.01,2013-03-30 11:24:00,
2013-03-30 07:29:00,28.7,26.9,30.18,NNW,333,0.0,0.0,93,0.00,,,0.00,VWS V14.01,2013-03-30 11:29:00,
2013-03-30 07:30:00,28.7,26.9,30.18,NNW,333,0.0,0.0,93,0.00,,,0.00,VWS V14.01,2013-03-30 11:30:00,
2013-03-30 07:34:00,28.7,26.9,30.18,NNW,333,0.0,0.0,93,0.00,,,0.00,VWS V14.01,2013-03-30 11:34:00,
2013-03-30 07:39:00,29.4,27.9,30.18,NNW,333,0.0,0.0,94,0.00,,,0.00,VWS V14.01,2013-03-30 11:39:00,
2013-03-30 07:44:00,30.5,29.0,30.18,NNW,333,0.0,0.0,94,0.00,,,0.00,VWS V14.01,2013-03-30 11:44:00,
2013-03-30 07:45:00,30.6,29.1,30.18,NNW,333,0.0,0.0,94,0.00,,,0.00,VWS V14.01,2013-03-30 11:45:00,
2013-03-30 07:49:00,31.5,29.5,30.18,NNW,333,0.0,0.0,92,0.00,,,0.00,VWS V14.01,2013-03-30 11:49:00,
2013-03-30 07:54:00,31.8,29.2,30.18,NNW,333,0.0,0.0,90,0.00,,,0.00,VWS V14.01,2013-03-30 11:54:00,
2013-03-30 07:59:00,32.0,28.9,30.18,NNW,333,0.0,0.0,88,0.00,,,0.00,VWS V14.01,2013-03-30 11:59:00,
2013-03-30 08:00:00,32.1,29.2,30.18,NNW,333,0.0,0.0,89,0.00,,,0.00,VWS V14.01,2013-03-30 12:00:00,
2013-03-30 08:04:00,33.1,30.2,30.18,NNW,333,0.0,0.0,89,0.00,,,0.00,VWS V14.01,2013-03-30 12:04:00,
2013-03-30 08:09:00,33.9,30.7,30.18,NNW,333,0.0,0.0,88,0.00,,,0.00,VWS V14.01,2013-03-30 12:09:00,
2013-03-30 08:14:00,34.8,30.8,30.19,NNW,333,0.0,0.0,85,0.00,,,0.00,VWS V14.01,2013-03-30 12:14:00,
2013-03-30 08:15:00,34.9,30.9,30.19,NNW,333,0.0,0.0,85,0.00,,,0.00,VWS V14.01,2013-03-30 12:15:00,
2013-03-30 08:19:00,35.5,31.1,30.19,NNW,333,0.0,0.0,84,0.00,,,0.00,VWS V14.01,2013-03-30 12:19:00,
2013-03-30 08:24:00,35.8,30.9,30.19,NNW,333,0.0,0.0,82,0.00,,,0.00,VWS V14.01,2013-03-30 12:24:00,
2013-03-30 08:29:00,37.5,32.2,30.19,NNW,333,0.0,0.0,81,0.00,,,0.00,VWS V14.01,2013-03-30 12:29:00,
2013-03-30 08:30:00,37.5,31.6,30.19,NNW,333,0.0,0.0,79,0.00,,,0.00,VWS V14.01,2013-03-30 12:30:00,
2013-03-30 08:34:00,37.5,31.6,30.19,NNW,333,0.0,0.0,79,0.00,,,0.00,VWS V14.01,2013-03-30 12:34:00,
2013-03-30 08:39:00,38.4,31.5,30.19,NNW,333,1.0,1.0,76,0.00,,,0.00,VWS V14.01,2013-03-30 12:39:00,
2013-03-30 08:44:00,39.1,31.5,30.19,NNW,333,0.0,3.0,74,0.00,,,0.00,VWS V14.01,2013-03-30 12:44:00,
2013-03-30 08:45:00,39.4,31.5,30.19,NNW,333,0.0,3.0,73,0.00,,,0.00,VWS V14.01,2013-03-30 12:45:00,
2013-03-30 08:49:00,40.1,31.5,30.19,NNW,333,0.0,1.0,71,0.00,,,0.00,VWS V14.01,2013-03-30 12:49:00,
2013-03-30 08:54:00,40.7,31.0,30.19,NNW,333,2.0,2.0,68,0.00,,,0.00,VWS V14.01,2013-03-30 12:54:00,
2013-03-30 08:59:00,41.2,31.1,30.19,NNW,333,0.0,2.0,67,0.00,,,0.00,VWS V14.01,2013-03-30 12:59:00,
2013-03-30 09:00:00,41.2,30.7,30.19,NNW,333,0.0,2.0,66,0.00,,,0.00,VWS V14.01,2013-03-30 13:00:00,
2013-03-30 09:04:00,41.1,30.6,30.19,NNE,28,0.0,4.0,66,0.00,,,0.00,VWS V14.01,2013-03-30 13:04:00,
2013-03-30 09:09:00,41.2,30.7,30.19,West,267,0.0,5.0,66,0.00,,,0.00,VWS V14.01,2013-03-30 13:09:00,
2013-03-30 09:14:00,41.1,30.2,30.19,SW,230,0.0,6.0,65,0.00,,,0.00,VWS V14.01,2013-03-30 13:14:00,
2013-03-30 09:15:00,41.4,30.9,30.19,WNW,295,0.0,6.0,66,0.00,,,0.00,VWS V14.01,2013-03-30 13:15:00,
2013-03-30 09:18:00,41.4,30.5,30.19,West,268,0.0,5.0,65,0.00,,,0.00,VWS V14.01,2013-03-30 13:18:00,
2013-03-30 09:23:00,41.8,30.5,30.19,NNW,340,0.0,6.0,64,0.00,,,0.00,VWS V14.01,2013-03-30 13:23:00,
2013-03-30 09:29:00,42.7,30.2,30.19,WNW,289,2.0,6.0,61,0.00,,,0.00,VWS V14.01,2013-03-30 13:29:00,
2013-03-30 09:30:00,42.7,30.2,30.19,WNW,288,0.0,6.0,61,0.00,,,0.00,VWS V14.01,2013-03-30 13:30:00,
2013-03-30 09:33:00,42.7,29.8,30.19,NNW,333,0.0,8.0,60,0.00,,,0.00,VWS V14.01,2013-03-30 13:33:00,
2013-03-30 09:39:00,43.4,30.0,30.19,NNE,14,0.0,8.0,59,0.00,,,0.00,VWS V14.01,2013-03-30 13:39:00,
2013-03-30 09:44:00,43.8,29.6,30.19,NW,313,0.0,8.0,57,0.00,,,0.00,VWS V14.01,2013-03-30 13:44:00,
2013-03-30 09:45:00,44.0,29.3,30.19,NE,41,0.0,8.0,56,0.00,,,0.00,VWS V14.01,2013-03-30 13:45:00,
2013-03-30 09:49:00,44.2,29.1,30.19,NE,34,3.0,7.0,55,0.00,,,0.00,VWS V14.01,2013-03-30 13:49:00,
2013-03-30 09:53:00,45.0,29.8,30.19,North,5,2.0,7.0,55,0.00,,,0.00,VWS V14.01,2013-03-30 13:53:00,
2013-03-30 09:58:00,44.8,27.3,30.19,NNE,24,0.0,7.0,50,0.00,,,0.00,VWS V14.01,2013-03-30 13:58:00,
2013-03-30 10:00:00,45.1,28.1,30.19,NNE,24,0.0,7.0,51,0.00,,,0.00,VWS V14.01,2013-03-30 14:00:00,
2013-03-30 10:03:00,45.1,27.6,30.19,ENE,57,7.0,7.0,50,0.00,,,0.00,VWS V14.01,2013-03-30 14:03:00,
2013-03-30 10:08:00,45.7,28.1,30.19,WNW,288,0.0,13.0,50,0.00,,,0.00,VWS V14.01,2013-03-30 14:08:00,
2013-03-30 10:13:00,45.7,27.6,30.19,NNE,26,7.0,13.0,49,0.00,,,0.00,VWS V14.01,2013-03-30 14:13:00,
2013-03-30 10:15:00,45.9,27.8,30.19,ENE,65,2.0,13.0,49,0.00,,,0.00,VWS V14.01,2013-03-30 14:15:00,
2013-03-30 10:18:00,45.7,27.6,30.19,NE,52,6.0,9.0,49,0.00,,,0.00,VWS V14.01,2013-03-30 14:18:00,
2013-03-30 10:23:00,46.1,28.0,30.19,NE,38,0.0,9.0,49,0.00,,,0.00,VWS V14.01,2013-03-30 14:23:00,
2013-03-30 10:28:00,46.3,26.7,30.19,North,9,0.0,10.0,46,0.00,,,0.00,VWS V14.01,2013-03-30 14:28:00,
2013-03-30 10:30:00,46.3,26.7,30.18,North,9,0.0,10.0,46,0.00,,,0.00,VWS V14.01,2013-03-30 14:30:00,
2013-03-30 10:33:00,46.6,26.4,30.18,NE,46,4.0,7.0,45,0.00,,,0.00,VWS V14.01,2013-03-30 14:33:00,
2013-03-30 10:38:00,47.0,28.9,30.18,NNE,32,6.0,7.0,49,0.00,,,0.00,VWS V14.01,2013-03-30 14:38:00,
2013-03-30 10:43:00,47.0,25.1,30.18,NNE,29,0.0,8.0,42,0.00,,,0.00,VWS V14.01,2013-03-30 14:43:00,
2013-03-30 10:45:00,47.2,25.3,30.18,NNE,29,0.0,8.0,42,0.00,,,0.00,VWS V14.01,2013-03-30 14:45:00,
2013-03-30 10:48:00,47.8,25.8,30.18,NNE,30,0.0,1.0,42,0.00,,,0.00,VWS V14.01,2013-03-30 14:48:00,
2013-03-30 10:53:00,48.8,25.0,30.18,NNW,331,4.0,7.0,39,0.00,,,0.00,VWS V14.01,2013-03-30 14:53:00,
2013-03-30 10:58:00,48.2,24.4,30.18,North,351,0.0,8.0,39,0.00,,,0.00,VWS V14.01,2013-03-30 14:58:00,
2013-03-30 11:00:00,48.4,25.8,30.18,NW,315,5.0,8.0,41,0.00,,,0.00,VWS V14.01,2013-03-30 15:00:00,
2013-03-30 11:03:00,48.1,24.3,30.18,West,264,4.0,9.0,39,0.00,,,0.00,VWS V14.01,2013-03-30 15:03:00,
2013-03-30 11:08:00,48.4,24.6,30.18,NE,46,5.0,10.0,39,0.00,,,0.00,VWS V14.01,2013-03-30 15:08:00,
2013-03-30 11:13:00,49.7,25.1,30.18,NNE,32,7.0,10.0,38,0.00,,,0.00,VWS V14.01,2013-03-30 15:13:00,
2013-03-30 11:15:00,49.5,24.3,30.17,NE,36,7.0,10.0,37,0.00,,,0.00,VWS V14.01,2013-03-30 15:15:00,
2013-03-30 11:18:00,50.0,24.1,30.17,NW,322,7.0,10.0,36,0.00,,,0.00,VWS V14.01,2013-03-30 15:18:00,
2013-03-30 11:23:00,48.8,22.4,30.17,West,280,0.0,10.0,35,0.00,,,0.00,VWS V14.01,2013-03-30 15:23:00,
2013-03-30 11:28:00,49.3,22.8,30.17,West,271,7.0,12.0,35,0.00,,,0.00,VWS V14.01,2013-03-30 15:28:00,
2013-03-30 11:30:00,49.3,23.5,30.17,WSW,250,6.0,12.0,36,0.00,,,0.00,VWS V14.01,2013-03-30 15:30:00,
2013-03-30 11:33:00,49.5,23.0,30.17,SW,215,2.0,7.0,35,0.00,,,0.00,VWS V14.01,2013-03-30 15:33:00,
2013-03-30 11:38:00,49.3,22.8,30.17,West,259,6.0,9.0,35,0.00,,,0.00,VWS V14.01,2013-03-30 15:38:00,
2013-03-30 11:43:00,50.3,23.7,30.17,NNW,338,2.0,13.0,35,0.00,,,0.00,VWS V14.01,2013-03-30 15:43:00,
2013-03-30 11:45:00,50.4,23.8,30.17,West,271,7.0,13.0,35,0.00,,,0.00,VWS V14.01,2013-03-30 15:45:00,
2013-03-30 11:48:00,50.4,22.4,30.17,West,270,6.0,13.0,33,0.00,,,0.00,VWS V14.01,2013-03-30 15:48:00,
2013-03-30 11:53:00,50.3,21.6,30.17,West,270,5.0,13.0,32,0.00,,,0.00,VWS V14.01,2013-03-30 15:53:00,
2013-03-30 11:58:00,50.6,23.3,30.17,NW,304,5.0,13.0,34,0.00,,,0.00,VWS V14.01,2013-03-30 15:58:00,
2013-03-30 12:00:00,50.4,22.4,30.17,West,271,0.0,13.0,33,0.00,,,0.00,VWS V14.01,2013-03-30 16:00:00,
2013-03-30 12:03:00,50.9,24.2,30.17,West,275,3.0,9.0,35,0.00,,,0.00,VWS V14.01,2013-03-30 16:03:00,
2013-03-30 12:08:00,50.4,22.4,30.17,NNW,342,1.0,9.0,33,0.00,,,0.00,VWS V14.01,2013-03-30 16:08:00,
2013-03-30 12:13:00,51.6,22.7,30.17,North,11,0.0,9.0,32,0.00,,,0.00,VWS V14.01,2013-03-30 16:13:00,
2013-03-30 12:15:00,52.4,23.4,30.16,North,5,0.0,9.0,32,0.00,,,0.00,VWS V14.01,2013-03-30 16:15:00,
2013-03-30 12:18:00,51.9,21.5,30.16,West,275,0.0,10.0,30,0.00,,,0.00,VWS V14.01,2013-03-30 16:18:00,
2013-03-30 12:23:00,52.2,22.5,30.16,NNW,338,6.0,10.0,31,0.00,,,0.00,VWS V14.01,2013-03-30 16:23:00,
2013-03-30 12:28:00,52.2,22.5,30.16,NW,304,2.0,11.0,31,0.00,,,0.00,VWS V14.01,2013-03-30 16:28:00,
2013-03-30 12:30:00,52.8,23.0,30.16,North,5,6.0,11.0,31,0.00,,,0.00,VWS V14.01,2013-03-30 16:30:00,
2013-03-30 12:33:00,52.1,22.4,30.16,NNW,329,0.0,11.0,31,0.00,,,0.00,VWS V14.01,2013-03-30 16:33:00,
2013-03-30 12:38:00,52.8,23.0,30.16,West,275,4.0,11.0,31,0.00,,,0.00,VWS V14.01,2013-03-30 16:38:00,
2013-03-30 12:43:00,52.5,23.5,30.16,NE,42,5.0,11.0,32,0.00,,,0.00,VWS V14.01,2013-03-30 16:43:00,
2013-03-30 12:45:00,52.5,23.5,30.15,East,84,4.0,11.0,32,0.00,,,0.00,VWS V14.01,2013-03-30 16:45:00,
2013-03-30 12:48:00,52.5,22.0,30.15,NNE,32,6.0,8.0,30,0.00,,,0.00,VWS V14.01,2013-03-30 16:48:00,
2013-03-30 12:53:00,52.5,22.8,30.15,ENE,62,6.0,11.0,31,0.00,,,0.00,VWS V14.01,2013-03-30 16:53:00,
2013-03-30 12:58:00,53.0,22.4,30.15,West,262,6.0,11.0,30,0.00,,,0.00,VWS V14.01,2013-03-30 16:58:00,
2013-03-30 13:00:00,53.0,22.4,30.15,WNW,296,6.0,12.0,30,0.00,,,0.00,VWS V14.01,2013-03-30 17:00:00,
2013-03-30 13:03:00,53.1,22.5,30.15,WSW,247,1.0,10.0,30,0.00,,,0.00,VWS V14.01,2013-03-30 17:03:00,
2013-03-30 13:08:00,53.5,23.6,30.15,West,275,8.0,11.0,31,0.00,,,0.00,VWS V14.01,2013-03-30 17:08:00,
2013-03-30 13:13:00,54.0,24.8,30.15,NNW,346,0.0,11.0,32,0.00,,,0.00,VWS V14.01,2013-03-30 17:13:00,
2013-03-30 13:15:00,54.4,22.0,30.14,WNW,295,2.0,11.0,28,0.00,,,0.00,VWS V14.01,2013-03-30 17:15:00,
2013-03-30 13:18:00,53.7,23.8,30.14,NNW,329,4.0,7.0,31,0.00,,,0.00,VWS V14.01,2013-03-30 17:18:00,
2013-03-30 13:23:00,52.8,21.4,30.14,WNW,290,6.0,12.0,29,0.00,,,0.00,VWS V14.01,2013-03-30 17:23:00,
2013-03-30 13:28:00,52.2,21.7,30.14,West,273,3.0,12.0,30,0.00,,,0.00,VWS V14.01,2013-03-30 17:28:00,
2013-03-30 13:30:00,52.2,21.7,30.13,West,280,7.0,12.0,30,0.00,,,0.00,VWS V14.01,2013-03-30 17:30:00,
2013-03-30 13:33:00,52.2,20.9,30.13,West,276,4.0,8.0,29,0.00,,,0.00,VWS V14.01,2013-03-30 17:33:00,
2013-03-30 13:38:00,52.5,20.4,30.13,WNW,286,6.0,8.0,28,0.00,,,0.00,VWS V14.01,2013-03-30 17:38:00,
2013-03-30 13:43:00,52.5,20.4,30.13,WSW,252,2.0,9.0,28,0.00,,,0.00,VWS V14.01,2013-03-30 17:43:00,
2013-03-30 13:45:00,52.8,23.8,30.12,WSW,252,5.0,9.0,32,0.00,,,0.00,VWS V14.01,2013-03-30 17:45:00,
2013-03-30 13:48:00,53.8,22.3,30.12,ENE,66,3.0,10.0,29,0.00,,,0.00,VWS V14.01,2013-03-30 17:48:00,
2013-03-30 13:53:00,53.4,20.3,30.12,WSW,252,7.0,10.0,27,0.00,,,0.00,VWS V14.01,2013-03-30 17:53:00,
2013-03-30 13:58:00,53.7,20.5,30.12,ENE,57,6.0,11.0,27,0.00,,,0.00,VWS V14.01,2013-03-30 17:58:00,
2013-03-30 14:00:00,54.1,21.7,30.11,NE,53,6.0,11.0,28,0.00,,,0.00,VWS V14.01,2013-03-30 18:00:00,
2013-03-30 14:03:00,54.0,19.0,30.11,NE,55,11.0,13.0,25,0.00,,,0.00,VWS V14.01,2013-03-30 18:03:00,
2013-03-30 14:08:00,55.3,21.0,30.11,WNW,293,6.0,13.0,26,0.00,,,0.00,VWS V14.01,2013-03-30 18:08:00,
2013-03-30 14:13:00,55.9,19.6,30.11,NW,317,5.0,16.0,24,0.00,,,0.00,VWS V14.01,2013-03-30 18:13:00,
2013-03-30 14:15:00,55.8,20.5,30.11,WSW,254,12.0,16.0,25,0.00,,,0.00,VWS V14.01,2013-03-30 18:15:00,
2013-03-30 14:18:00,55.5,20.3,30.11,WNW,296,7.0,12.0,25,0.00,,,0.00,VWS V14.01,2013-03-30 18:18:00,
2013-03-30 14:23:00,54.6,18.5,30.11,WSW,248,9.0,16.0,24,0.00,,,0.00,VWS V14.01,2013-03-30 18:23:00,
2013-03-30 14:28:00,54.9,19.8,30.11,WSW,249,5.0,16.0,25,0.00,,,0.00,VWS V14.01,2013-03-30 18:28:00,
2013-03-30 14:30:00,55.2,19.1,30.10,WSW,245,7.0,16.0,24,0.00,,,0.00,VWS V14.01,2013-03-30 18:30:00,
2013-03-30 14:33:00,55.3,18.1,30.10,West,281,12.0,18.0,23,0.00,,,0.00,VWS V14.01,2013-03-30 18:33:00,
2013-03-30 14:38:00,55.9,19.6,30.10,NNE,24,6.0,18.0,24,0.00,,,0.00,VWS V14.01,2013-03-30 18:38:00,
2013-03-30 14:43:00,55.6,17.4,30.10,ENE,61,4.0,18.0,22,0.00,,,0.00,VWS V14.01,2013-03-30 18:43:00,
2013-03-30 14:45:00,56.1,19.8,30.10,WNW,282,4.0,18.0,24,0.00,,,0.00,VWS V14.01,2013-03-30 18:45:00,
2013-03-30 14:48:00,55.6,17.4,30.10,WNW,300,0.0,8.0,22,0.00,,,0.00,VWS V14.01,2013-03-30 18:48:00,
2013-03-30 14:53:00,56.5,19.2,30.10,WSW,241,8.0,12.0,23,0.00,,,0.00,VWS V14.01,2013-03-30 18:53:00,
2013-03-30 14:58:00,56.8,19.4,30.10,West,273,8.0,12.0,23,0.00,,,0.00,VWS V14.01,2013-03-30 18:58:00,
2013-03-30 15:00:00,56.2,17.9,30.09,WSW,257,7.0,12.0,22,0.00,,,0.00,VWS V14.01,2013-03-30 19:00:00,
2013-03-30 15:03:00,55.9,18.7,30.09,North,5,9.0,11.0,23,0.00,,,0.00,VWS V14.01,2013-03-30 19:03:00,
2013-03-30 15:08:00,56.1,17.8,30.09,WNW,292,3.0,13.0,22,0.00,,,0.00,VWS V14.01,2013-03-30 19:08:00,
2013-03-30 15:13:00,56.2,19.9,30.09,North,360,7.0,13.0,24,0.00,,,0.00,VWS V14.01,2013-03-30 19:13:00,
2013-03-30 15:15:00,56.2,16.8,30.09,NNW,347,6.0,13.0,21,0.00,,,0.00,VWS V14.01,2013-03-30 19:15:00,
2013-03-30 15:18:00,56.5,17.1,30.09,WSW,250,8.0,13.0,21,0.00,,,0.00,VWS V14.01,2013-03-30 19:18:00,
2013-03-30 15:23:00,56.4,15.9,30.09,West,261,2.0,13.0,20,0.00,,,0.00,VWS V14.01,2013-03-30 19:23:00,
2013-03-30 15:28:00,56.2,16.8,30.09,SSW,199,6.0,13.0,21,0.00,,,0.00,VWS V14.01,2013-03-30 19:28:00,
2013-03-30 15:30:00,56.4,18.0,30.09,WNW,292,12.0,14.0,22,0.00,,,0.00,VWS V14.01,2013-03-30 19:30:00,
2013-03-30 15:33:00,55.8,16.5,30.09,NNE,29,0.0,12.0,21,0.00,,,0.00,VWS V14.01,2013-03-30 19:33:00,
2013-03-30 15:38:00,56.2,16.8,30.09,West,272,5.0,12.0,21,0.00,,,0.00,VWS V14.01,2013-03-30 19:38:00,
2013-03-30 15:43:00,56.8,17.3,30.09,NNW,331,4.0,12.0,21,0.00,,,0.00,VWS V14.01,2013-03-30 19:43:00,
2013-03-30 15:45:00,56.8,17.3,30.09,NNW,331,0.0,12.0,21,0.00,,,0.00,VWS V14.01,2013-03-30 19:45:00,
2013-03-30 15:48:00,57.2,17.6,30.09,NNW,336,0.0,4.0,21,0.00,,,0.00,VWS V14.01,2013-03-30 19:48:00,
2013-03-30 15:53:00,56.9,17.4,30.09,WSW,254,9.0,13.0,21,0.00,,,0.00,VWS V14.01,2013-03-30 19:53:00,
2013-03-30 15:58:00,56.8,17.3,30.09,WSW,248,5.0,18.0,21,0.00,,,0.00,VWS V14.01,2013-03-30 19:58:00,
2013-03-30 16:00:00,56.8,17.3,30.09,West,281,8.0,18.0,21,0.00,,,0.00,VWS V14.01,2013-03-30 20:00:00,
2013-03-30 16:03:00,56.6,17.1,30.09,West,277,6.0,15.0,21,0.00,,,0.00,VWS V14.01,2013-03-30 20:03:00,
2013-03-30 16:08:00,56.6,16.0,30.09,West,269,8.0,15.0,20,0.00,,,0.00,VWS V14.01,2013-03-30 20:08:00,
2013-03-30 16:13:00,56.6,16.0,30.09,West,267,8.0,15.0,20,0.00,,,0.00,VWS V14.01,2013-03-30 20:13:00,
2013-03-30 16:15:00,56.8,17.3,30.08,SW,226,9.0,15.0,21,0.00,,,0.00,VWS V14.01,2013-03-30 20:15:00,
2013-03-30 16:18:00,56.9,17.4,30.08,WSW,250,0.0,9.0,21,0.00,,,0.00,VWS V14.01,2013-03-30 20:18:00,
2013-03-30 16:23:00,57.5,16.8,30.08,WSW,243,0.0,9.0,20,0.00,,,0.00,VWS V14.01,2013-03-30 20:23:00,
2013-03-30 16:28:00,58.0,18.3,30.08,WNW,287,8.0,15.0,21,0.00,,,0.00,VWS V14.01,2013-03-30 20:28:00,
2013-03-30 16:30:00,58.0,18.3,30.08,NNW,329,2.0,15.0,21,0.00,,,0.00,VWS V14.01,2013-03-30 20:30:00,
2013-03-30 16:33:00,58.2,18.5,30.08,SW,233,4.0,7.0,21,0.00,,,0.00,VWS V14.01,2013-03-30 20:33:00,
2013-03-30 16:38:00,58.0,18.3,30.08,WNW,288,10.0,10.0,21,0.00,,,0.00,VWS V14.01,2013-03-30 20:38:00,
2013-03-30 16:43:00,58.0,18.3,30.08,West,273,0.0,10.0,21,0.00,,,0.00,VWS V14.01,2013-03-30 20:43:00,
2013-03-30 16:45:00,58.2,19.6,30.09,West,273,5.0,10.0,22,0.00,,,0.00,VWS V14.01,2013-03-30 20:45:00,
2013-03-30 16:48:00,58.5,19.8,30.09,WNW,292,5.0,11.0,22,0.00,,,0.00,VWS V14.01,2013-03-30 20:48:00,
2013-03-30 16:53:00,58.5,19.8,30.09,WNW,286,9.0,11.0,22,0.00,,,0.00,VWS V14.01,2013-03-30 20:53:00,
2013-03-30 16:58:00,58.8,20.1,30.09,West,267,1.0,12.0,22,0.00,,,0.00,VWS V14.01,2013-03-30 20:58:00,
2013-03-30 17:00:00,58.6,19.9,30.08,NNE,33,5.0,12.0,22,0.00,,,0.00,VWS V14.01,2013-03-30 21:00:00,
2013-03-30 17:03:00,58.3,19.6,30.08,NW,311,8.0,9.0,22,0.00,,,0.00,VWS V14.01,2013-03-30 21:03:00,
2013-03-30 17:08:00,57.9,19.3,30.08,WNW,295,4.0,12.0,22,0.00,,,0.00,VWS V14.01,2013-03-30 21:08:00,
2013-03-30 17:13:00,57.4,18.9,30.08,WSW,258,10.0,13.0,22,0.00,,,0.00,VWS V14.01,2013-03-30 21:13:00,
2013-03-30 17:15:00,57.1,19.7,30.08,NNW,348,5.0,13.0,23,0.00,,,0.00,VWS V14.01,2013-03-30 21:15:00,
2013-03-30 17:18:00,57.1,19.7,30.08,NNE,33,10.0,11.0,23,0.00,,,0.00,VWS V14.01,2013-03-30 21:18:00,
2013-03-30 17:23:00,57.2,20.8,30.08,WSW,254,4.0,14.0,24,0.00,,,0.00,VWS V14.01,2013-03-30 21:23:00,
2013-03-30 17:28:00,57.4,19.9,30.08,NW,309,0.0,14.0,23,0.00,,,0.00,VWS V14.01,2013-03-30 21:28:00,
2013-03-30 17:30:00,57.5,20.0,30.08,NW,309,0.0,14.0,23,0.00,,,0.00,VWS V14.01,2013-03-30 21:30:00,
2013-03-30 17:33:00,58.0,20.4,30.08,NW,310,0.0,2.0,23,0.00,,,0.00,VWS V14.01,2013-03-30 21:33:00,
2013-03-30 17:38:00,57.7,20.2,30.08,West,263,4.0,10.0,23,0.00,,,0.00,VWS V14.01,2013-03-30 21:38:00,
2013-03-30 17:43:00,56.6,20.2,30.08,West,274,4.0,13.0,24,0.00,,,0.00,VWS V14.01,2013-03-30 21:43:00,
2013-03-30 17:45:00,56.5,20.2,30.08,WNW,283,4.0,13.0,24,0.00,,,0.00,VWS V14.01,2013-03-30 21:45:00,
2013-03-30 17:48:00,56.4,20.1,30.08,West,262,0.0,6.0,24,0.00,,,0.00,VWS V14.01,2013-03-30 21:48:00,
2013-03-30 17:53:00,56.6,20.2,30.08,NW,309,0.0,7.0,24,0.00,,,0.00,VWS V14.01,2013-03-30 21:53:00,
2013-03-30 17:58:00,56.6,20.2,30.08,NE,40,3.0,9.0,24,0.00,,,0.00,VWS V14.01,2013-03-30 21:58:00,
2013-03-30 18:00:00,56.6,20.2,30.09,NE,38,0.0,9.0,24,0.00,,,0.00,VWS V14.01,2013-03-30 22:00:00,
2013-03-30 18:03:00,56.8,20.4,30.09,NNW,344,0.0,5.0,24,0.00,,,0.00,VWS V14.01,2013-03-30 22:03:00,
2013-03-30 18:08:00,57.1,20.7,30.09,NNW,348,0.0,5.0,24,0.00,,,0.00,VWS V14.01,2013-03-30 22:08:00,
2013-03-30 18:13:00,56.9,20.5,30.09,West,277,0.0,9.0,24,0.00,,,0.00,VWS V14.01,2013-03-30 22:13:00,
2013-03-30 18:15:00,56.8,21.4,30.09,North,349,7.0,9.0,25,0.00,,,0.00,VWS V14.01,2013-03-30 22:15:00,
2013-03-30 18:18:00,56.5,20.2,30.09,WSW,253,0.0,7.0,24,0.00,,,0.00,VWS V14.01,2013-03-30 22:18:00,
2013-03-30 18:23:00,55.9,20.6,30.09,West,273,6.0,8.0,25,0.00,,,0.00,VWS V14.01,2013-03-30 22:23:00,
2013-03-30 18:28:00,55.3,21.0,30.09,West,273,0.0,8.0,26,0.00,,,0.00,VWS V14.01,2013-03-30 22:28:00,
2013-03-30 18:30:00,55.2,21.8,30.09,West,272,4.0,8.0,27,0.00,,,0.00,VWS V14.01,2013-03-30 22:30:00,
2013-03-30 18:33:00,55.0,21.6,30.09,West,272,5.0,6.0,27,0.00,,,0.00,VWS V14.01,2013-03-30 22:33:00,
2013-03-30 18:38:00,54.7,21.4,30.09,West,270,4.0,6.0,27,0.00,,,0.00,VWS V14.01,2013-03-30 22:38:00,
2013-03-30 18:43:00,54.6,22.2,30.09,West,273,0.0,7.0,28,0.00,,,0.00,VWS V14.01,2013-03-30 22:43:00,
2013-03-30 18:45:00,54.6,22.2,30.09,West,273,0.0,7.0,28,0.00,,,0.00,VWS V14.01,2013-03-30 22:45:00,
2013-03-30 18:48:00,54.6,22.2,30.09,West,273,0.0,0.0,28,0.00,,,0.00,VWS V14.01,2013-03-30 22:48:00,
2013-03-30 18:53:00,54.7,21.4,30.09,West,273,0.0,2.0,27,0.00,,,0.00,VWS V14.01,2013-03-30 22:53:00,
2013-03-30 18:58:00,54.7,22.3,30.09,West,273,0.0,2.0,28,0.00,,,0.00,VWS V14.01,2013-03-30 22:58:00,
2013-03-30 19:00:00,54.7,21.4,30.09,West,273,0.0,2.0,27,0.00,,,0.00,VWS V14.01,2013-03-30 23:00:00,
2013-03-30 19:03:00,54.6,21.3,30.09,West,273,0.0,0.0,27,0.00,,,0.00,VWS V14.01,2013-03-30 23:03:00,
2013-03-30 19:08:00,54.4,22.8,30.09,West,273,0.0,0.0,29,0.00,,,0.00,VWS V14.01,2013-03-30 23:08:00,
2013-03-30 19:13:00,54.3,23.5,30.09,West,273,0.0,0.0,30,0.00,,,0.00,VWS V14.01,2013-03-30 23:13:00,
2013-03-30 19:15:00,54.1,24.9,30.09,West,273,0.0,0.0,32,0.00,,,0.00,VWS V14.01,2013-03-30 23:15:00,
2013-03-30 19:18:00,54.0,24.8,30.09,West,273,0.0,0.0,32,0.00,,,0.00,VWS V14.01,2013-03-30 23:18:00,
2013-03-30 19:23:00,53.7,23.8,30.09,West,273,0.0,0.0,31,0.00,,,0.00,VWS V14.01,2013-03-30 23:23:00,
2013-03-30 19:28:00,53.2,26.3,30.09,West,273,0.0,0.0,35,0.00,,,0.00,VWS V14.01,2013-03-30 23:28:00,
2013-03-30 19:30:00,53.1,28.8,30.09,West,273,0.0,0.0,39,0.00,,,0.00,VWS V14.01,2013-03-30 23:30:00,
2013-03-30 19:33:00,52.8,32.1,30.09,West,273,0.0,0.0,45,0.00,,,0.00,VWS V14.01,2013-03-30 23:33:00,
2013-03-30 19:38:00,52.4,28.8,30.09,West,273,0.0,0.0,40,0.00,,,0.00,VWS V14.01,2013-03-30 23:38:00,
2013-03-30 19:43:00,51.9,26.5,30.09,West,273,0.0,0.0,37,0.00,,,0.00,VWS V14.01,2013-03-30 23:43:00,
2013-03-30 19:45:00,51.6,29.9,30.09,West,273,0.0,0.0,43,0.00,,,0.00,VWS V14.01,2013-03-30 23:45:00,
2013-03-30 19:48:00,51.0,29.9,30.09,West,273,0.0,0.0,44,0.00,,,0.00,VWS V14.01,2013-03-30 23:48:00,
2013-03-30 19:53:00,50.1,26.7,30.09,West,273,0.0,0.0,40,0.00,,,0.00,VWS V14.01,2013-03-30 23:53:00,
2013-03-30 19:58:00,49.7,27.0,30.09,West,273,0.0,0.0,41,0.00,,,0.00,VWS V14.01,2013-03-30 23:58:00,
2013-03-30 20:00:00,49.5,27.4,30.10,West,273,0.0,0.0,42,0.00,,,0.00,VWS V14.01,2013-03-31 00:00:00,
2013-03-30 20:03:00,49.1,29.8,30.10,West,273,0.0,0.0,47,0.00,,,0.00,VWS V14.01,2013-03-31 00:03:00,
2013-03-30 20:08:00,48.4,30.1,30.10,West,273,0.0,0.0,49,0.00,,,0.00,VWS V14.01,2013-03-31 00:08:00,
2013-03-30 20:13:00,47.8,28.6,30.10,West,273,0.0,0.0,47,0.00,,,0.00,VWS V14.01,2013-03-31 00:13:00,
2013-03-30 20:15:00,47.5,28.3,30.10,West,273,0.0,0.0,47,0.00,,,0.00,VWS V14.01,2013-03-31 00:15:00,
2013-03-30 20:18:00,47.2,27.5,30.10,West,273,0.0,0.0,46,0.00,,,0.00,VWS V14.01,2013-03-31 00:18:00,
2013-03-30 20:23:00,46.7,27.0,30.10,West,273,0.0,0.0,46,0.00,,,0.00,VWS V14.01,2013-03-31 00:23:00,
2013-03-30 20:28:00,46.1,27.5,30.10,West,273,0.0,0.0,48,0.00,,,0.00,VWS V14.01,2013-03-31 00:28:00,
2013-03-30 20:30:00,46.0,27.9,30.11,West,273,0.0,0.0,49,0.00,,,0.00,VWS V14.01,2013-03-31 00:30:00,
2013-03-30 20:33:00,45.4,27.9,30.11,West,273,0.0,0.0,50,0.00,,,0.00,VWS V14.01,2013-03-31 00:33:00,
2013-03-30 20:38:00,45.0,28.9,30.11,West,273,0.0,0.0,53,0.00,,,0.00,VWS V14.01,2013-03-31 00:38:00,
2013-03-30 20:43:00,44.2,27.7,30.11,West,273,0.0,0.0,52,0.00,,,0.00,VWS V14.01,2013-03-31 00:43:00,
2013-03-30 20:45:00,44.1,28.1,30.11,West,273,0.0,0.0,53,0.00,,,0.00,VWS V14.01,2013-03-31 00:45:00,
2013-03-30 20:48:00,43.8,27.3,30.11,West,273,0.0,0.0,52,0.00,,,0.00,VWS V14.01,2013-03-31 00:48:00,
2013-03-30 20:53:00,43.4,26.5,30.11,West,273,0.0,0.0,51,0.00,,,0.00,VWS V14.01,2013-03-31 00:53:00,
2013-03-30 20:58:00,43.0,27.0,30.11,West,273,0.0,0.0,53,0.00,,,0.00,VWS V14.01,2013-03-31 00:58:00,
2013-03-30 21:00:00,42.8,27.3,30.12,West,273,0.0,0.0,54,0.00,,,0.00,VWS V14.01,2013-03-31 01:00:00,
2013-03-30 21:03:00,42.7,27.7,30.12,West,273,0.0,0.0,55,0.00,,,0.00,VWS V14.01,2013-03-31 01:03:00,
2013-03-30 21:08:00,42.2,27.2,30.12,West,273,0.0,0.0,55,0.00,,,0.00,VWS V14.01,2013-03-31 01:08:00,
2013-03-30 21:13:00,42.1,26.7,30.12,West,273,0.0,0.0,54,0.00,,,0.00,VWS V14.01,2013-03-31 01:13:00,
2013-03-30 21:15:00,42.0,27.0,30.12,West,273,0.0,0.0,55,0.00,,,0.00,VWS V14.01,2013-03-31 01:15:00,
2013-03-30 21:18:00,41.8,28.1,30.12,West,273,0.0,0.0,58,0.00,,,0.00,VWS V14.01,2013-03-31 01:18:00,
2013-03-30 21:23:00,41.5,27.0,30.12,West,273,0.0,0.0,56,0.00,,,0.00,VWS V14.01,2013-03-31 01:23:00,
2013-03-30 21:28:00,41.1,27.9,30.12,West,273,0.0,0.0,59,0.00,,,0.00,VWS V14.01,2013-03-31 01:28:00,
2013-03-30 21:30:00,41.0,28.2,30.12,West,273,0.0,0.0,60,0.00,,,0.00,VWS V14.01,2013-03-31 01:30:00,
2013-03-30 21:33:00,40.8,28.4,30.12,West,273,0.0,0.0,61,0.00,,,0.00,VWS V14.01,2013-03-31 01:33:00,
2013-03-30 21:38:00,40.2,27.0,30.12,West,273,0.0,0.0,59,0.00,,,0.00,VWS V14.01,2013-03-31 01:38:00,
2013-03-30 21:43:00,40.0,26.8,30.12,West,273,0.0,0.0,59,0.00,,,0.00,VWS V14.01,2013-03-31 01:43:00,
2013-03-30 21:45:00,40.0,26.4,30.13,West,273,0.0,0.0,58,0.00,,,0.00,VWS V14.01,2013-03-31 01:45:00,
2013-03-30 21:48:00,39.8,26.2,30.13,West,273,0.0,0.0,58,0.00,,,0.00,VWS V14.01,2013-03-31 01:48:00,
2013-03-30 21:53:00,39.7,26.6,30.13,West,273,0.0,0.0,59,0.00,,,0.00,VWS V14.01,2013-03-31 01:53:00,
2013-03-30 21:58:00,39.5,26.8,30.13,West,273,0.0,0.0,60,0.00,,,0.00,VWS V14.01,2013-03-31 01:58:00,
2013-03-30 22:00:00,39.5,26.8,30.13,West,273,0.0,0.0,60,0.00,,,0.00,VWS V14.01,2013-03-31 02:00:00,
2013-03-30 22:03:00,39.4,27.1,30.13,West,273,0.0,0.0,61,0.00,,,0.00,VWS V14.01,2013-03-31 02:03:00,
2013-03-30 22:08:00,39.2,26.9,30.13,West,273,0.0,0.0,61,0.00,,,0.00,VWS V14.01,2013-03-31 02:08:00,
2013-03-30 22:13:00,39.1,27.6,30.13,West,273,0.0,0.0,63,0.00,,,0.00,VWS V14.01,2013-03-31 02:13:00,
2013-03-30 22:15:00,39.1,29.1,30.13,West,273,0.0,0.0,67,0.00,,,0.00,VWS V14.01,2013-03-31 02:15:00,
2013-03-30 22:18:00,38.8,28.4,30.13,West,273,0.0,0.0,66,0.00,,,0.00,VWS V14.01,2013-03-31 02:18:00,
2013-03-30 22:23:00,38.7,27.6,30.13,West,273,0.0,0.0,64,0.00,,,0.00,VWS V14.01,2013-03-31 02:23:00,
2013-03-30 22:28:00,38.4,27.7,30.13,West,273,0.0,0.0,65,0.00,,,0.00,VWS V14.01,2013-03-31 02:28:00,
2013-03-30 22:30:00,38.4,27.3,30.13,West,273,0.0,0.0,64,0.00,,,0.00,VWS V14.01,2013-03-31 02:30:00,
2013-03-30 22:33:00,38.2,27.1,30.13,West,273,0.0,0.0,64,0.00,,,0.00,VWS V14.01,2013-03-31 02:33:00,
2013-03-30 22:38:00,38.1,27.0,30.13,West,273,0.0,0.0,64,0.00,,,0.00,VWS V14.01,2013-03-31 02:38:00,
2013-03-30 22:43:00,37.9,28.3,30.13,West,273,0.0,0.0,68,0.00,,,0.00,VWS V14.01,2013-03-31 02:43:00,
2013-03-30 22:45:00,37.8,28.2,30.13,West,273,0.0,0.0,68,0.00,,,0.00,VWS V14.01,2013-03-31 02:45:00,
2013-03-30 22:48:00,37.7,27.8,30.13,West,273,0.0,0.0,67,0.00,,,0.00,VWS V14.01,2013-03-31 02:48:00,
2013-03-30 22:53:00,37.4,28.2,30.13,West,273,0.0,0.0,69,0.00,,,0.00,VWS V14.01,2013-03-31 02:53:00,
2013-03-30 22:58:00,37.2,28.3,30.13,West,273,0.0,0.0,70,0.00,,,0.00,VWS V14.01,2013-03-31 02:58:00,
2013-03-30 23:00:00,37.1,28.2,30.13,West,273,0.0,0.0,70,0.00,,,0.00,VWS V14.01,2013-03-31 03:00:00,
2013-03-30 23:03:00,36.9,27.7,30.13,West,273,0.0,0.0,69,0.00,,,0.00,VWS V14.01,2013-03-31 03:03:00,
2013-03-30 23:08:00,36.8,28.3,30.13,West,273,0.0,0.0,71,0.00,,,0.00,VWS V14.01,2013-03-31 03:08:00,
2013-03-30 23:13:00,36.7,28.2,30.13,West,273,0.0,0.0,71,0.00,,,0.00,VWS V14.01,2013-03-31 03:13:00,
2013-03-30 23:15:00,36.5,28.0,30.13,West,273,0.0,0.0,71,0.00,,,0.00,VWS V14.01,2013-03-31 03:15:00,
2013-03-30 23:18:00,36.4,27.6,30.13,West,273,0.0,0.0,70,0.00,,,0.00,VWS V14.01,2013-03-31 03:18:00,
2013-03-30 23:23:00,36.2,27.0,30.13,West,273,0.0,0.0,69,0.00,,,0.00,VWS V14.01,2013-03-31 03:23:00,
2013-03-30 23:28:00,36.2,27.0,30.13,West,273,0.0,0.0,69,0.00,,,0.00,VWS V14.01,2013-03-31 03:28:00,
2013-03-30 23:30:00,36.2,27.0,30.13,West,273,0.0,0.0,69,0.00,,,0.00,VWS V14.01,2013-03-31 03:30:00,
2013-03-30 23:33:00,36.1,26.6,30.13,West,273,0.0,0.0,68,0.00,,,0.00,VWS V14.01,2013-03-31 03:33:00,
2013-03-30 23:38:00,36.1,26.6,30.13,West,273,0.0,0.0,68,0.00,,,0.00,VWS V14.01,2013-03-31 03:38:00,
2013-03-30 23:43:00,35.9,26.4,30.13,West,273,0.0,0.0,68,0.00,,,0.00,VWS V14.01,2013-03-31 03:43:00,
2013-03-30 23:45:00,35.9,26.4,30.13,West,273,0.0,0.0,68,0.00,,,0.00,VWS V14.01,2013-03-31 03:45:00,
2013-03-30 23:48:00,35.9,26.7,30.13,West,273,0.0,0.0,69,0.00,,,0.00,VWS V14.01,2013-03-31 03:48:00,
2013-03-30 23:53:00,35.9,26.4,30.13,West,273,0.0,0.0,68,0.00,,,0.00,VWS V14.01,2013-03-31 03:53:00,
2013-03-30 23:58:00,35.9,26.4,30.13,West,273,0.0,0.0,68,0.00,,,0.00,VWS V14.01,2013-03-31 03:58:00,